Other Public Products
Issued by NWS Grand Forks, ND

Home | Current Version | Previous Version | Text Only | Print | Product List | Glossary Off
Versions: 1 2 3 4 5 6 7 8 9 10 11 12 13 14 15 16 17 18 19 20 21 22 23 24 25 26 27 28 29 30 31 32 33 34 35 36 37 38 39 40 41 42 43 44 45 46 47 48 49 50

684
FPUS83 KFGF 201110
OPUFGF
PRAIRIE TO PINES WEATHER ROUNDUP
NATIONAL WEATHER SERVICE EASTERN NORTH DAKOTA/GRAND FORKS ND
600 AM CDT THU JUL 20 2017

 **SATELLITE DATA USED TO AUGMENT SKY COVER AT AUTOMATED STATIONS**
 *****  WEATHER ACROSS EASTERN NORTH DAKOTA  *****

CITY           SKY/WX    TMP DP  RH WIND       PRES   REMARKS
GRAND FORKS    FAIR      58  58 100 NW8       29.97R
GRAND FORKS AF FAIR      59  58  96 NW6       29.99R
GRAND CITY NWS NOT AVBL
BUXTON         NOT AVBL
DEVILS LAKE    FAIR      61  61 100 NE6       30.01R FOG
FARGO          FAIR      61  60  97 NW3       29.98R
WAHPETON ARPT  CLOUDY    61  59  94 S3        30.00R VSB<1/4
$$

 *****  WEATHER ACROSS CENTRAL AND WESTERN NORTH DAKOTA  *****

CITY           SKY/WX    TMP DP  RH WIND       PRES   REMARKS
JAMESTOWN      FAIR      61  59  93 NE3       30.00S
BISMARCK       FAIR      62  60  93 E3        30.02R
MINOT          FAIR      58  56  93 N3        30.00S
MINOT AFB      FAIR      62  58  85 N5        29.99F
GARRISON         N/A     60  59  96 SE6       30.00R
WILLISTON        N/A    N/A N/A N/A MISG      29.95S
DICKINSON      FAIR      66  59  78 S13       29.99S
HETTINGER      FAIR      64  59  83 CALM      30.05S
$$

 *****  OTHER OBSERVATIONS NORTHEAST NORTH DAKOTA  *****

CITY           SKY/WX    TMP DP  RH WIND       PRES   REMARKS
WALHALLA       NOT AVBL
LANGDON        FAIR      50  50 100 CALM      30.04R
CAVALIER       FAIR      57  55  94 NW5       29.99R
GRAFTON        FAIR      57  57 100 NW7       30.01R
CANDO          NOT AVBL
FORT TOTTEN      N/A     62  62 100 CALM      29.95
ROLLA            N/A     52  52 100 N8        30.05R
RUGBY          NOT AVBL
 ***** THE ABOVE OBSERVATIONS ARE NON NWS ARE NOT QUALITY
        CONTROLLED AND MAY MIS-REPORT RAIN FOR SNOW...
$$

 *****  OTHER OBSERVATIONS SOUTHEAST NORTH DAKOTA *****

CITY           SKY/WX    TMP DP  RH WIND       PRES   REMARKS
COOPERSTOWN    FAIR      59  59 100 SE5       30.00F FOG
VALLEY CITY    FAIR      61  61 100 NW7       30.03R
OAKES          NOT AVBL
GWINNER        SUNNY     61  61 100 CALM      30.00R FOG
SHEYENNE NWR     N/A     57  57 100 CALM      29.95S
BUFFALO        NOT AVBL
WYNDMERE       NOT AVBL
 ***** THE ABOVE OBSERVATIONS ARE NON NWS ARE NOT QUALITY
       CONTROLLED AND MAY MIS-REPORT RAIN FOR SNOW...
$$

  *****  WEATHER ACROSS NORTHERN MINNESOTA  *****

CITY           SKY/WX    TMP DP  RH WIND       PRES   REMARKS
FLAG ISLAND    FAIR      64  61  88 NW8       29.94R
WARROAD        FAIR      57  54  88 W5        29.98R
ROSEAU         FAIR      57  54  88 CALM      29.98R
HALLOCK        FAIR      55  54  94 NW3       29.99R
THF RVR FALLS  FAIR      59  58  96 N8        29.98R
HALSTAD        NOT AVBL
FOSSTON        FOG       55  54  94 CALM      29.99R VSB<1/4
BAUDETTE       FAIR      60  60 100 W7        29.95R FOG
WASKISH        FAIR      66  63  88 NW7       29.96R
CROOKSTON      FAIR      57  57 100 N7        29.97F
$$
  *****  WEATHER ACROSS CENTRAL AND WEST MINNESOTA  *****

CITY           SKY/WX    TMP DP  RH WIND       PRES   REMARKS
BEMIDJI        FAIR      61  60  99 W3        29.98R FOG
PARK RAPIDS    FOG       58  56  93 W5        29.99R VSB<1/4
WADENA         CLOUDY    57  57 100 CALM      29.99R VSB<1/4
DETROIT LAKES  FOG       63  61  94 CALM      30.00S VSB<1/4
MOORHEAD       FOG       55  55 100 CALM      29.99R VSB 1/4
FERGUS FALLS   FOG       63  63 100 CALM      29.99R VSB 1
ELBOW LAKE     FOG       59  59 100 S3        30.01R VSB 1/4
MORRIS MN      FOG       61  61 100 CALM      29.98F VSB<1/4
STAPLES        FOG       57  57 100 CALM      29.99S VSB<1/4
WHEATON        FOG       61  61 100 CALM      30.01R VSB 1/4
$$
  *****  WEATHER ELSEWHERE ACROSS MINNESOTA  *****

CITY           SKY/WX    TMP DP  RH WIND       PRES   REMARKS
DULUTH         FAIR      63  62  97 W6        29.94S
INTRNTL FALLS  FOG       55  55 100 CALM      29.93R VSB 1/4
ELY            FAIR      57  55  94 CALM      29.93S FOG
CLOQUET        FAIR      61  57  88 W6        29.95S
BRAINERD       FAIR      58  58 100 CALM      29.98R FOG
HIBBING        FAIR      49  49 100 CALM      29.95R
ALEXANDRIA     FAIR      62  60  93 SW3       30.02R
SAINT CLOUD    FOG       59  59 100 CALM      29.98S VSB 1/4
MINNEAPOLIS    FAIR      68  66  93 CALM      29.98R
$$

  *****  WEATHER ACROSS SOUTH DAKOTA  *****

CITY           SKY/WX    TMP DP  RH WIND       PRES   REMARKS
SIOUX FALLS    CLOUDY    71  69  93 NE6       29.99R
BROOKINGS      FAIR      68  67  96 S3        30.02R
WATERTOWN      FOG       64  64 100 CALM      30.01S VSB 3/4
HURON          MOCLDY    70  70 100 N10       29.98S FOG
SISSETON         N/A     60  59  96 CALM      29.98R
ABERDEEN       FOG       63  63 100 CALM      30.00R VSB 1/4
MITCHELL       FAIR      72  71  97 CALM      30.00R
PIERRE         MOCLDY    72  69  90 NE5       30.00S
MOBRIDGE       FOG       66  65  96 S5        29.97F VSB 1/2
RAPID CITY     FAIR      66  62  87 W6        30.08F
$$

  *****  SOME WEATHER IN NEARBY STATES *****

CITY           SKY/WX    TMP DP  RH WIND       PRES   REMARKS
GLASGOW MT     NOT AVBL
GREAT FALLS MT FAIR      56  34  43 S6        29.95F
CHEYENNE WY    FAIR      63  54  72 NW7       30.27R
SCOTTSBLUFF NE FAIR      68  64  87 CALM      30.14R
OMAHA NE       MOCLDY    81  70  69 S12       29.94S
DES MOINES IA  MOCLDY    81  71  71 SW9       29.94R
DAVENPORT IA   MOCLDY    78  71  79 SW10      29.97R
CHICAGO IL     TSTM      70  67  90 NE6       30.05R FOG
EAU CLAIRE WI  FOG       67  67 100 CALM      29.97R VSB 1/4
LA CROSSE WI   CLOUDY    71  68  90 S8        29.97R
$$

  *****  SOME NATIONAL WEATHER *****

CITY           SKY/WX    TMP DP  RH WIND       PRES   REMARKS
LA GUARDIA NY  PTSUNNY   79  73  82 NE3       29.96R
RALEIGH NC     FAIR      73  71  93 SW5       30.06S
ATLANTA GA     FAIR      74  70  87 W7        30.11R
NEW ORLEANS LA MOCLDY    76  75  97 W3        30.09R
OKLAHOMA CITY  FAIR      74  69  85 S6        30.09R
ALBUQUERQUE NM MOCLDY    67  53  61 SE6       30.29S
SALT LAKE CITY FAIR      78  56  46 S12       30.05R
LOS ANGELES CA FAIR      68  64  87 CALM      29.97S
BOISE ID       FAIR      67  37  33 SE6       29.93R
SEATTLE WA     MOCLDY    61  53  75 S8        30.07R
$$

*** WEATHER ACROSS MANITOBA...SASKATCHEWAN AND ONTARIO ***
                ***ONTARIO***

CITY           SKY/WX    TMP DP  RH WIND       PRES   REMARKS
GERALDTON      MOCLDY    59  54  82 SW8       29.83F
THUNDER BAY    PTCLDY    55  55 100 W5        29.86R
SIOUX LOOKOUT  PTCLDY    59  57  94 NW7       29.88R
TORONTO        MOCLDY    66  55  68 NE3       29.99R
BIG TROUT LK   MOCLDY    55  54  94 W12G18    29.72R
PICKLE LAKE    CLOUDY    54  54 100 W6        29.84  FOG
DRYDEN         PTCLDY    59  57  94 W3        29.90R
KENORA         PTCLDY    59  57  94 NW7       29.94R
$$
                *** MANITOBA***

CITY           SKY/WX    TMP DP  RH WIND       PRES   REMARKS
BRANDON        PTCLDY    45  43  93 W5        30.02R
DAUPHIN        CLEAR     54  48  82 SW10      29.98R
ISLAND LAKE    PTCLDY    57  50  77 W8        29.83
PILOT MOUND      N/A     50  48  93 SW6         N/A
THE PAS        MOCLDY    59  54  82 W6        29.88R
THOMPSON       PTCLDY    39  39 100 W5        29.85R
WINNIPEG       MOCLDY    46  46 100 W6        29.99R
LYNN LAKE      CLEAR     43  39  87 W6        29.91R
CHURCHILL      MOCLDY    48  41  76 NW20G28   29.66R
GILLAM         PTCLDY    54  43  66 NW21      29.74R
$$
                ***SASKATCHEWAN***

CITY           SKY/WX    TMP DP  RH WIND       PRES   REMARKS
ESTEVAN        PTCLDY    54  52  94 E6        30.01F
KINDERSLEY     PTCLDY    52  48  87 E8        29.94S
LLOYDMINSTER   CLEAR     52  52 100 CALM      29.94R FOG
PRINCE ALBERT  CLOUDY    48  48 100 CALM      29.93S
REGINA         PTCLDY    52  48  87 SE8       29.99R
YORKTON        CLEAR     55  50  82 S7        29.98S



USA.gov is the U.S. government's official web portal to all federal, state and local government web resources and services.